Gwinn, MI

3:26 AM EDT on July 22, 2017 (GMT -0400)
Sawyer International

Weather History for KSAW - October, 2011

Change the Weather History Date:

Monday, October 3, 2011

  Actual Average (KESC) Record (KESC)
Temperature  
Mean Temperature 52 °F -  
Max Temperature 66 °F 58 °F 72 °F (1951)
Min Temperature 37 °F 43 °F 28 °F (1996)
Degree Days  
Heating Degree Days 14    
Growing Degree Days 2 (Base 50)    
Moisture  
Dew Point 41 °F    
Average Humidity 79    
Maximum Humidity 93    
Minimum Humidity 43    
Precipitation  
Precipitation 0.00 in - - ()
Sea Level Pressure  
Sea Level Pressure 30.22 in    
Wind  
Wind Speed 4 mph (North)    
Max Wind Speed 9 mph    
Max Gust Speed -    
Visibility 10 miles    
Events      
Averages and records for this station are not official NWS values.
T = Trace of Precipitation, MM = Missing Value Source: NWS Daily Summary

Daily Weather History Graph

Daily Weather History Graph

Search for Another Location

Airport or City:

Trip Planner

Search our weather history database for the weather conditions in past years. The results will help you decide how hot, cold, wet, or windy it might be!

Date:

Astronomy

Oct. 03, 2011 Rise Set
Actual Time 7:50 AM EDT 7:26 PM EDT
Civil Twilight 7:20 AM EDT 7:56 PM EDT
Nautical Twilight 6:45 AM EDT 8:30 PM EDT
Astronomical Twilight 6:10 AM EDT 9:06 PM EDT
Moon 3:06 PM EDT (10/3) No Moon Set
Length of Visible Light 12h 35m
Length of Day
11h 35m
Waxing Crescent, 45% of the Moon is Illuminated
Oct 3
Waxing Crescent
Oct 3
First Quarter
Oct 11
Full
Oct 19
Last Quarter
Oct 26
New

Hourly Weather History & Observations

Time (EDT) Temp. Windchill Dew Point Humidity Pressure Visibility Wind Dir Wind Speed Gust Speed Precip Events Conditions
12:18 AM 44.6 °F 42.2 °F 42.8 °F 93% 30.18 in 10.0 mi North 4.6 mph - N/A   Clear
12:38 AM 42.8 °F 40.1 °F 39.2 °F 87% 30.19 in 10.0 mi North 4.6 mph - N/A   Clear
12:59 AM 42.8 °F 40.1 °F 39.2 °F 87% 30.19 in 10.0 mi North 4.6 mph - N/A   Clear
1:18 AM 42.8 °F 40.1 °F 39.2 °F 87% 30.19 in 10.0 mi North 4.6 mph - N/A   Clear
1:38 AM 42.8 °F 40.1 °F 41.0 °F 93% 30.19 in 10.0 mi North 4.6 mph - N/A   Clear
1:59 AM 41.0 °F 38.0 °F 39.2 °F 93% 30.20 in 10.0 mi North 4.6 mph - N/A   Clear
2:18 AM 42.8 °F 40.1 °F 41.0 °F 93% 30.20 in 10.0 mi North 4.6 mph - N/A   Clear
2:38 AM 42.8 °F 41.1 °F 39.2 °F 87% 30.21 in 4.0 mi North 3.5 mph - N/A   Clear
2:58 AM 42.8 °F 40.1 °F 41.0 °F 93% 30.21 in 10.0 mi North 4.6 mph - N/A   Clear
3:18 AM 42.8 °F 40.1 °F 41.0 °F 93% 30.21 in 10.0 mi North 4.6 mph - N/A   Clear
3:38 AM 41.0 °F - 39.2 °F 93% 30.21 in 10.0 mi Calm Calm - N/A   Clear
3:58 AM 42.8 °F 40.1 °F 41.0 °F 93% 30.20 in 10.0 mi North 4.6 mph - N/A   Clear
4:18 AM 42.8 °F 39.3 °F 41.0 °F 93% 30.20 in 10.0 mi North 5.8 mph - N/A   Clear
4:39 AM 41.0 °F 38.0 °F 39.2 °F 93% 30.20 in 10.0 mi NNW 4.6 mph - N/A   Clear
4:58 AM 41.0 °F 39.0 °F 37.4 °F 87% 30.21 in 10.0 mi NW 3.5 mph - N/A   Clear
5:18 AM 39.2 °F 37.0 °F 37.4 °F 93% 30.21 in 10.0 mi NNW 3.5 mph - N/A   Clear
5:39 AM 39.2 °F 35.9 °F 37.4 °F 93% 30.21 in 10.0 mi North 4.6 mph - N/A   Clear
5:58 AM 39.2 °F - 35.6 °F 87% 30.22 in 10.0 mi Calm Calm - N/A   Clear
6:55 AM 37.4 °F 34.9 °F 35.6 °F 93% 30.24 in 10.0 mi North 3.5 mph - N/A   Clear
7:50 AM 37.4 °F 34.9 °F 35.6 °F 93% 30.24 in 10.0 mi NNW 3.5 mph - N/A   Clear
8:55 AM 42.8 °F - 39.2 °F 87% 30.26 in 10.0 mi Calm Calm - N/A   Clear
9:55 AM 53.6 °F - 44.6 °F 72% 30.27 in 10.0 mi NNE 4.6 mph - N/A   Clear
10:50 AM 57.2 °F - 44.6 °F 63% 30.28 in 10.0 mi NE 4.6 mph - N/A   Clear
11:50 AM 60.8 °F - 42.8 °F 52% 30.28 in 10.0 mi Calm Calm - N/A   Clear
12:50 PM 64.4 °F - 42.8 °F 45% 30.27 in 10.0 mi Calm Calm - N/A   Clear
1:50 PM 66.2 °F - 42.8 °F 43% 30.26 in 10.0 mi NE 3.5 mph - N/A   Clear
2:50 PM 66.2 °F - 44.6 °F 46% 30.24 in 10.0 mi NNE 6.9 mph - N/A   Clear
3:50 PM 64.4 °F - 42.8 °F 45% 30.24 in 10.0 mi NE 9.2 mph - N/A   Clear
5:50 PM 62.6 °F - 42.8 °F 48% 30.22 in 10.0 mi NE 4.6 mph - N/A   Clear
6:50 PM 60.8 °F - 42.8 °F 52% 30.22 in 10.0 mi NE 4.6 mph - N/A   Clear
7:55 PM 53.6 °F - 44.6 °F 72% 30.22 in 10.0 mi Calm Calm - N/A   Clear
8:50 PM 51.8 °F - 44.6 °F 76% 30.22 in 10.0 mi Calm Calm - N/A   Clear
9:50 PM 48.2 °F - 41.0 °F 76% 30.22 in 10.0 mi Calm Calm - N/A   Clear
10:18 PM 46.4 °F - 42.8 °F 87% 30.23 in 10.0 mi Calm Calm - N/A   Clear
10:38 PM 46.4 °F - 41.0 °F 81% 30.23 in 10.0 mi Calm Calm - N/A   Clear
10:59 PM 46.4 °F - 41.0 °F 81% 30.23 in 10.0 mi Calm Calm - N/A   Clear
11:18 PM 46.4 °F - 41.0 °F 81% 30.23 in 10.0 mi Calm Calm - N/A   Clear
11:38 PM 46.4 °F - 41.0 °F 81% 30.23 in 10.0 mi Calm Calm - N/A   Clear
11:59 PM 44.6 °F - 39.2 °F 81% 30.24 in 10.0 mi Calm Calm - N/A   Clear